Location: *
(48.8667°N, 2.3331°E)
Time: 09:37:13
(UTC+00:00)

ISS - Visible Passes

Search period start: 04 March 2021 00:00
Search period end: 14 March 2021 00:00
Orbit: 417 x 422 km, 51.6° (Epoch: 04 March)

Date Brightness Start Highest point End Pass type
(mag) Time Alt. Az. Time Alt. Az. Time Alt. Az.
04 Mar -0.2 03:09:46 10° ENE 03:09:46 10° ENE 03:09:51 10° ENE visible
04 Mar -3.2 04:42:44 40° NW 04:43:31 51° N 04:46:49 10° E visible
05 Mar -2.1 03:57:03 34° NE 03:57:03 34° NE 03:59:16 10° ENE visible
05 Mar -3.7 05:30:01 13° WNW 05:33:01 77° NNE 05:36:22 10° ESE visible
06 Mar -0.4 03:11:24 12° ENE 03:11:24 12° ENE 03:11:44 10° ENE visible
06 Mar -3.5 04:44:21 36° NW 04:45:30 63° NNE 04:48:50 10° E visible
07 Mar -2.5 03:58:44 41° ENE 03:58:44 41° ENE 04:01:16 10° E visible
07 Mar -3.6 05:31:42 11° WNW 05:34:49 58° SSW 05:38:07 10° SE visible
08 Mar -0.5 03:13:10 13° ENE 03:13:10 13° ENE 03:13:41 10° E visible
08 Mar -3.9 04:46:08 37° WNW 04:47:21 81° SSW 04:50:42 10° ESE visible
09 Mar -2.9 04:00:38 49° E 04:00:38 49° E 04:03:12 10° ESE visible
09 Mar -2.6 05:33:36 10° W 05:36:25 27° SW 05:39:19 10° SSE visible
10 Mar -0.6 03:15:14 13° E 03:15:14 13° E 03:15:38 10° E visible
10 Mar -3.2 04:48:12 33° WSW 04:49:02 40° SSW 04:52:12 10° SE visible
11 Mar -2.4 04:02:56 31° SE 04:02:56 31° SE 04:04:54 10° SE visible
11 Mar -1.6 05:36:26 10° WSW 05:37:50 12° SW 05:39:12 10° SSW visible
12 Mar -2.1 04:50:47 18° SW 04:50:47 18° SW 04:52:55 10° S visible
13 Mar -1.1 04:05:49 11° SSE 04:05:49 11° SSE 04:06:03 10° SSE visible
